EW0991 Weather Reports


time (UTC)temp
F
wind
direction
speed
knots
gust
knots
rain 1hr
in
rain 24hr
in
rain mn
in
humidity
%
barometer
mb
20260506201556 63 267 0.0 0.0 0.00 0.16 0.16 87 1007.0
20260506200137 63 250 0.0 0.0 0.00 0.16 0.16 88 1006.9
20260506194603 62 221 0.0 0.0 0.00 0.16 0.16 89 1007.0
20260506193054 62 228 0.0 0.0 0.00 0.16 0.16 91 1007.1
20260506191552 62 224 0.0 0.0 0.00 0.16 0.16 94 1007.2
20260506190050 60 245 0.0 0.0 0.00 0.16 0.16 95 1007.3
20260506184552 59 219 0.0 0.0 0.00 0.16 0.16 95 1007.5
20260506183047 59 243 0.0 0.0 0.00 0.16 0.16 95 1007.7
20260506181546 59 217 0.0 0.0 0.00 0.16 0.16 95 1007.8
20260506180051 58 233 0.0 0.0 0.01 0.16 0.16 95 1007.9
20260506174546 58 240 0.0 0.0 0.01 0.16 0.16 95 1008.0
20260506173048 58 148 0.0 0.0 0.01 0.16 0.16 95 1007.9
20260506171551 59 240 0.0 0.0 0.01 0.16 0.16 95 1007.8
20260506170043 58 250 0.0 0.0 0.00 0.15 0.15 95 1008.2
20260506164543 59 248 0.0 0.0 0.01 0.15 0.15 95 1008.2
20260506163047 59 217 0.0 0.0 0.03 0.15 0.15 95 1008.3
20260506161552 59 238 0.0 0.0 0.05 0.15 0.15 95 1007.8
20260506160040 59 170 0.0 0.0 0.08 0.15 0.15 95 1007.6
20260506154537 59 207 0.0 0.0 0.08 0.14 0.14 95 1008.5
20260506153038 59 214 0.0 0.0 0.07 0.12 0.12 95 1009.0
20260506151535 59 238 0.0 0.0 0.07 0.10 0.10 95 1009.1
20260506150035 59 249 0.0 0.0 0.05 0.07 0.07 95 1009.1
20260506144532 60 167 0.0 0.0 0.04 0.06 0.06 95 1008.9
20260506143032 59 245 0.0 0.0 0.04 0.05 0.05 95 1008.7
20260506141530 59 229 0.0 0.0 0.02 0.03 0.03 94 1008.8
20260506140029 59 195 0.0 0.0 0.02 0.02 0.02 94 1008.8
20260506134603 59 243 0.0 0.0 0.02 0.02 0.02 94 1008.7
20260506133028 59 200 0.0 0.0 0.01 0.01 0.01 94 1009.0
20260506131528 59 165 0.0 0.0 0.01 0.01 0.01 94 1009.1
20260506130026 59 203 0.0 0.0 0.00 0.00 0.00 93 1009.1
20260506124523 60 248 0.0 0.0 0.00 0.00 0.00 92 1009.2
20260506123020 63 272 0.0 0.0 0.00 0.00 0.00 80 1009.2
20260506121518 63 258 0.0 0.0 0.00 0.00 0.00 78 1008.9
20260506120016 64 233 0.0 0.0 0.00 0.00 0.00 76 1009.0
20260506114523 64 218 0.0 0.0 0.00 0.00 0.00 75 1008.9
20260506113013 64 276 0.0 0.0 0.00 0.00 0.00 75 1008.6
20260506111511 65 237 0.0 0.0 0.00 0.00 0.00 74 1008.6
20260506110015 65 214 0.0 0.0 0.00 0.00 0.00 73 1008.5
20260506104507 0 0.0 0.0 0.00 0.00 0.00 1008.1
20260506103012 0 0.0 0.0 0.00 0.00 0.00 1008.0
20260506101558 0 0.0 0.0 0.00 0.00 0.00 1007.9
20260506100054 0 0.0 0.0 0.00 0.00 0.00 1008.1
20260506094550 0 0.0 0.0 0.00 0.00 0.00 1008.2
20260506093052 0 0.0 0.0 0.00 0.00 0.00 1008.1
20260506091541 0 0.0 0.0 0.00 0.00 0.00 1008.1
20260506090036 0 0.0 0.0 0.00 0.00 0.00 1008.1
20260506084532 0 0.0 0.0 0.00 0.00 0.00 1008.2
20260506083028 0 0.0 0.0 0.00 0.00 0.00 1008.2
20260506081528 0 0.0 0.0 0.00 0.00 0.00 1008.3
20260506073013 66 166 0.0 0.0 0.00 0.00 0.00 62 1008.4
20260506071510 67 170 0.0 0.0 0.00 0.00 0.00 61 1008.4
20260506061600 68 163 0.0 0.0 0.00 0.00 0.00 57 1009.0
20260506050104 69 151 0.0 0.0 0.00 0.00 0.00 55 1009.6
20260506044548 69 220 0.0 0.0 0.00 0.00 0.00 54 1009.7
20260506043048 69 143 0.0 0.0 0.00 0.00 0.00 53 1009.6
20260506041544 69 191 0.0 0.0 0.00 0.00 0.00 52 1009.7
20260506040042 69 249 0.0 0.0 0.00 0.00 0.00 52 1009.5
20260506034542 69 172 0.0 0.0 0.00 0.00 0.00 52 1009.6
20260506033041 70 157 0.0 0.0 0.00 0.00 0.00 51 1009.6
20260506031541 70 165 0.0 0.0 0.00 0.00 0.00 50 1009.5
20260506030039 70 165 0.0 0.0 0.00 0.00 0.00 50 1009.5
20260506024548 71 217 0.0 0.0 0.00 0.00 0.00 49 1009.5
20260506023040 71 179 0.0 0.0 0.00 0.00 0.00 48 1009.6
20260506021538 72 184 0.0 0.0 0.00 0.00 0.00 47 1009.7
20260506020040 72 165 0.0 0.0 0.00 0.00 0.00 45 1009.7
20260506014537 73 223 0.0 0.0 0.00 0.00 0.00 44 1009.4
20260506013038 73 216 0.0 0.0 0.00 0.00 0.00 43 1009.3
20260506011600 73 176 0.0 0.0 0.00 0.00 0.00 43 1009.1
20260506010035 74 68 0.0 0.0 0.00 0.00 0.00 42 1009.0
20260506004545 74 198 0.0 0.0 0.00 0.00 0.00 41 1008.8
20260506003035 74 161 0.0 0.0 0.00 0.00 0.00 41 1008.7
20260506001536 75 264 0.0 0.0 0.00 0.00 0.00 41 1008.5
20260506000056 75 220 0.0 0.0 0.00 0.00 0.00 41 1008.4
20260505234542 76 196 0.0 0.0 0.00 0.00 0.00 40 1008.4
20260505233034 76 230 0.0 0.0 0.00 0.00 0.00 39 1008.1
20260505231533 77 221 0.0 0.0 0.00 0.00 0.00 38 1008.1
20260505230050 78 237 0.0 0.0 0.00 0.00 0.00 37 1008.0
20260505224538 78 174 0.0 0.0 0.00 0.00 0.00 38 1008.1
20260505223030 79 215 0.0 0.0 0.00 0.00 0.00 36 1008.0
20260505221530 80 222 0.0 0.0 0.00 0.00 0.00 34 1007.9
20260505220029 80 197 0.0 0.0 0.00 0.00 0.00 34 1007.8
20260505214530 80 262 0.0 0.0 0.00 0.00 0.00 33 1007.8
20260505213027 80 258 0.0 0.0 0.00 0.00 0.00 35 1007.9
20260505211530 81 240 0.0 0.0 0.00 0.00 0.00 32 1007.8
20260505210029 80 211 0.0 0.0 0.00 0.00 0.00 34 1007.8
20260505204532 81 107 0.0 0.0 0.00 0.00 0.00 35 1007.9
20260505203024 80 248 0.0 0.0 0.00 0.00 0.00 34 1007.7